User: anonymous   Login
Location: Unspecified
(0.0000°N, 0.0000°E)
Time: 18:16:46
(UTC+02:00)
Language:

AO-7 - Orbit

View from above orbital plane
View from above orbital plane
View from above satellite
View from above satellite

Ground track
Ground track

The orbit data is extracted from the following two-line orbital elements,

1 07530U 74089B   15248.53275979 -.00000019  00000-0  15163-3 0  9990
2 07530 101.5301 221.7641 0012102 144.5671 326.4692 12.53616298867326
Epoch (UTC): 05 September 2015 12:47:10
Eccentricity: 0.0012102
inclination: 101.5301°
perigee height: 1440 km
apogee height: 1459 km
right ascension of ascending node: 221.7641°
argument of perigee: 144.5671°
revolutions per day: 12.53616298
mean anomaly at epoch: 326.4692°
orbit number at epoch: 86732

The dashed part of the orbit path shows where the satellite is in the earth's shadow,  

DLR